sat.trackr.live / text

‹ back to catalog

STARLINK-4360

NORAD 53482 · 2022-099T

PAYLOAD ACTIVE UNKNOWN

§ Identity

Operator
Country
US
Launch date
2022-08-12
Launch site
AFWTR
Launch vehicle
Mass (kg)
RCS (m²)

Purposes: comms

External: N2YO · Heavens-Above · Gunter

§ Orbital elements

Epoch: 2026-09-20T04:00:03.000096Z

Period
95.03 min
Inclination
97.2842°
Eccentricity
0.0001607
Mean motion
15.15331182 rev/d
Perigee alt
518.9 km
Apogee alt
521.1 km
Semi-major
6,898.1 km
B*
3.6610e-2
RAAN
17.0793°
Arg perigee
86.1016°
Mean anomaly
335.2547°
Rev number
582

§ Raw data

STARLINK-43601 53482U 22099T   26263.16670139  .00742705  00000+0  36610-1 0  99972 53482  97.2842  17.0793 0001607  86.1016 335.2547 15.15331182  5823

JSON: /api/v1/satellites/53482 · /tle

For live sub-satellite position, see the globe view (requires WebGL).

§ Visibility from observer

Set your observer location to see the next 7 days of passes ≥ 10°. The values pass through the URL so the page stays shareable.

No JS? Fill the form by hand. The geolocation button needs JavaScript.